TimeEST,TemperatureF,Dew PointF,Humidity,Sea Level PressureIn,VisibilityMPH,Wind Direction,Wind SpeedMPH,Gust SpeedMPH,PrecipitationIn,Events,Conditions,WindDirDegrees,DateUTC
12:15 AM,35.6,33.8,93,30.31,10.0,Calm,Calm,-,N/A,,Overcast,0,2012-12-04 05:15:00
12:35 AM,33.8,33.8,100,30.30,9.0,Calm,Calm,-,N/A,,Overcast,0,2012-12-04 05:35:00
1:15 AM,32.0,30.2,93,30.31,10.0,Calm,Calm,-,N/A,,Partly Cloudy,0,2012-12-04 06:15:00
1:35 AM,30.2,30.2,100,30.32,9.0,Calm,Calm,-,N/A,,Clear,0,2012-12-04 06:35:00
1:55 AM,30.2,30.2,100,30.32,10.0,Calm,Calm,-,N/A,,Clear,0,2012-12-04 06:55:00
2:15 AM,30.2,30.2,100,30.32,10.0,Calm,Calm,-,N/A,,Clear,0,2012-12-04 07:15:00
2:35 AM,30.2,28.4,93,30.32,9.0,Calm,Calm,-,N/A,,Clear,0,2012-12-04 07:35:00
2:55 AM,30.2,28.4,93,30.31,10.0,Calm,Calm,-,N/A,,Clear,0,2012-12-04 07:55:00
3:15 AM,28.4,28.4,100,30.31,8.0,Calm,Calm,-,N/A,,Clear,0,2012-12-04 08:15:00
3:55 AM,28.4,28.4,100,30.30,5.0,Calm,Calm,-,N/A,,Clear,0,2012-12-04 08:55:00
4:15 AM,28.4,26.6,93,30.30,10.0,Calm,Calm,-,N/A,,Clear,0,2012-12-04 09:15:00
4:35 AM,28.4,26.6,93,30.31,9.0,Calm,Calm,-,N/A,,Clear,0,2012-12-04 09:35:00
4:55 AM,28.4,28.4,100,30.32,10.0,Calm,Calm,-,N/A,,Clear,0,2012-12-04 09:55:00
5:15 AM,28.4,28.4,100,30.32,3.0,Calm,Calm,-,N/A,,Clear,0,2012-12-04 10:15:00
5:35 AM,28.4,26.6,93,30.33,8.0,Calm,Calm,-,N/A,,Clear,0,2012-12-04 10:35:00
5:55 AM,28.4,28.4,100,30.33,6.0,Calm,Calm,-,N/A,,Clear,0,2012-12-04 10:55:00
6:15 AM,28.4,26.6,93,30.34,6.0,Calm,Calm,-,N/A,,Clear,0,2012-12-04 11:15:00
6:35 AM,26.6,24.8,93,30.33,10.0,Calm,Calm,-,N/A,,Clear,0,2012-12-04 11:35:00
6:55 AM,26.6,24.8,93,30.33,9.0,Calm,Calm,-,N/A,,Scattered Clouds,0,2012-12-04 11:55:00
7:15 AM,28.4,28.4,100,30.33,8.0,Calm,Calm,-,N/A,,Mostly Cloudy,0,2012-12-04 12:15:00
7:35 AM,30.2,30.2,100,30.34,8.0,Calm,Calm,-,N/A,,Overcast,0,2012-12-04 12:35:00
7:55 AM,30.2,28.4,93,30.34,10.0,Calm,Calm,-,N/A,,Overcast,0,2012-12-04 12:55:00
8:15 AM,30.2,30.2,100,30.34,9.0,Calm,Calm,-,N/A,,Overcast,0,2012-12-04 13:15:00
8:35 AM,32.0,32.0,100,30.33,10.0,Calm,Calm,-,N/A,,Overcast,0,2012-12-04 13:35:00
8:55 AM,33.8,33.8,100,30.33,9.0,Calm,Calm,-,N/A,,Overcast,0,2012-12-04 13:55:00
9:15 AM,33.8,32.0,93,30.33,9.0,Calm,Calm,-,N/A,,Overcast,0,2012-12-04 14:15:00
9:35 AM,35.6,35.6,100,30.33,10.0,Calm,Calm,-,N/A,,Overcast,0,2012-12-04 14:35:00
9:55 AM,35.6,35.6,100,30.33,8.0,Calm,Calm,-,N/A,,Overcast,0,2012-12-04 14:55:00
10:15 AM,35.6,35.6,100,30.32,10.0,Calm,Calm,-,N/A,,Overcast,0,2012-12-04 15:15:00
10:35 AM,37.4,35.6,93,30.30,10.0,Calm,Calm,-,N/A,,Overcast,0,2012-12-04 15:35:00
10:55 AM,39.2,39.2,100,30.29,9.0,Calm,Calm,-,N/A,,Overcast,0,2012-12-04 15:55:00
11:15 AM,41.0,39.2,93,30.28,10.0,ESE,3.5,-,N/A,,Overcast,120,2012-12-04 16:15:00
11:35 AM,41.0,39.2,93,30.27,10.0,Calm,Calm,-,N/A,,Overcast,0,2012-12-04 16:35:00
11:55 AM,41.0,39.2,93,30.27,10.0,Calm,Calm,-,N/A,,Overcast,0,2012-12-04 16:55:00
12:15 PM,42.8,41.0,93,30.25,10.0,Calm,Calm,-,N/A,,Overcast,0,2012-12-04 17:15:00
12:35 PM,42.8,41.0,93,30.24,10.0,ESE,3.5,-,N/A,,Overcast,110,2012-12-04 17:35:00
1:15 PM,44.6,42.8,93,30.23,10.0,SSE,3.5,-,N/A,,Overcast,160,2012-12-04 18:15:00
1:35 PM,46.4,42.8,87,30.21,10.0,South,6.9,-,N/A,,Overcast,170,2012-12-04 18:35:00
1:55 PM,46.4,42.8,87,30.21,9.0,South,8.1,-,N/A,,Overcast,190,2012-12-04 18:55:00
2:15 PM,46.4,44.6,93,30.20,10.0,South,9.2,-,N/A,,Overcast,190,2012-12-04 19:15:00
2:35 PM,46.4,44.6,93,30.20,10.0,South,10.4,-,N/A,,Overcast,190,2012-12-04 19:35:00
2:55 PM,46.4,44.6,93,30.20,10.0,SSW,11.5,-,N/A,,Overcast,200,2012-12-04 19:55:00
3:15 PM,46.4,44.6,93,30.19,10.0,South,12.7,17.3,N/A,,Overcast,190,2012-12-04 20:15:00
3:35 PM,46.4,44.6,93,30.19,10.0,South,13.8,-,N/A,,Overcast,190,2012-12-04 20:35:00
3:55 PM,46.4,44.6,93,30.19,10.0,South,11.5,-,N/A,,Overcast,190,2012-12-04 20:55:00
4:15 PM,46.4,44.6,93,30.18,10.0,South,13.8,-,N/A,,Overcast,190,2012-12-04 21:15:00
4:35 PM,46.4,44.6,93,30.18,10.0,South,12.7,-,N/A,,Overcast,180,2012-12-04 21:35:00
4:55 PM,46.4,44.6,93,30.17,10.0,South,11.5,-,N/A,,Overcast,180,2012-12-04 21:55:00
5:15 PM,46.4,44.6,93,30.17,9.0,South,11.5,-,N/A,,Overcast,180,2012-12-04 22:15:00
5:35 PM,46.4,46.4,100,30.16,7.0,South,12.7,-,N/A,,Overcast,180,2012-12-04 22:35:00
5:55 PM,46.4,46.4,100,30.15,10.0,South,11.5,-,N/A,,Overcast,180,2012-12-04 22:55:00
6:15 PM,46.4,46.4,100,30.14,10.0,South,11.5,-,N/A,,Overcast,180,2012-12-04 23:15:00
6:35 PM,48.2,46.4,93,30.14,10.0,South,12.7,18.4,N/A,,Overcast,190,2012-12-04 23:35:00
6:55 PM,48.2,46.4,93,30.13,10.0,South,13.8,-,N/A,,Overcast,190,2012-12-04 23:55:00
7:15 PM,48.2,46.4,93,30.13,10.0,South,13.8,-,N/A,,Overcast,190,2012-12-05 00:15:00
7:35 PM,48.2,46.4,93,30.12,10.0,South,12.7,-,N/A,,Overcast,190,2012-12-05 00:35:00
7:55 PM,48.2,46.4,93,30.11,10.0,South,13.8,-,N/A,,Overcast,190,2012-12-05 00:55:00
8:15 PM,48.2,46.4,93,30.10,10.0,South,12.7,-,N/A,,Overcast,190,2012-12-05 01:15:00
8:35 PM,48.2,46.4,93,30.09,10.0,South,13.8,-,N/A,,Overcast,190,2012-12-05 01:35:00
8:55 PM,48.2,48.2,100,30.08,10.0,South,17.3,-,N/A,,Overcast,180,2012-12-05 01:55:00
9:15 PM,48.2,48.2,100,30.06,9.0,South,17.3,23.0,N/A,,Overcast,180,2012-12-05 02:15:00
9:35 PM,48.2,48.2,100,30.05,9.0,South,16.1,-,N/A,,Overcast,190,2012-12-05 02:35:00
9:55 PM,50.0,48.2,94,30.04,9.0,South,17.3,25.3,N/A,,Overcast,190,2012-12-05 02:55:00
10:15 PM,50.0,48.2,94,30.04,10.0,South,16.1,21.9,N/A,,Overcast,180,2012-12-05 03:15:00
10:35 PM,50.0,48.2,94,30.03,3.0,South,13.8,-,N/A,,Overcast,190,2012-12-05 03:35:00
10:55 PM,50.0,48.2,94,30.03,5.0,South,16.1,20.7,N/A,,Overcast,190,2012-12-05 03:55:00
11:15 PM,50.0,48.2,94,30.01,4.0,South,17.3,-,N/A,,Overcast,190,2012-12-05 04:15:00
11:35 PM,50.0,48.2,94,30.00,3.0,South,17.3,-,N/A,,Overcast,190,2012-12-05 04:35:00
11:55 PM,50.0,48.2,94,29.99,8.0,South,18.4,24.2,N/A,,Overcast,190,2012-12-05 04:55:00